[[{"header":{"parameterUnit":"m.s-1","parameterCategory":1,"la1":30.2991,"la2":30.254,"lo1":-89.0895,"lo2":-89.0444,"dy":0.0017,"dx":0.0017,"nx":28,"ny":28,"refTime":"2025-03-31T03:00:00:Z","depth":0,"parameterNumber":2,"parameterNumberName":"U-component_of_WINDS"},"data":[0,0,0,0,0,0,0,0,0,0,0,0,0,0,0,0,0,0,0,0,0,0,0,0,0,0,0,0,0,0,0,0,0,0,0,0,0,0,0,0,0,0,0,0,0,0,0,0,0,0,0,0,0,0,0,0,0,0,-1.7168,-1.717,0,-1.7388,-1.7391,-1.7393,-1.7544,-1.7545,-1.7546,-1.7547,-1.7778,-1.7783,-1.7788,0,0,0,0,0,0,0,0,0,0,0,0,0,-1.6884,-1.6889,-1.7168,-1.717,-1.7173,-1.7388,-1.7391,-1.7394,-1.7544,-1.7545,-1.7546,-1.7548,-1.7776,-1.7782,-1.7788,0,0,0,0,0,0,0,0,0,0,0,0,0,-1.7046,-1.689,-1.7167,-1.7274,-1.7285,-1.7387,-1.7391,-1.7394,-1.7544,-1.7545,-1.7547,-1.7548,-1.7774,-1.7782,-1.7789,-1.7804,0,0,-1.7813,-1.7816,0,0,0,0,0,0,0,0,-1.7037,-1.7056,-1.7255,-1.7267,-1.728,-1.744,-1.7375,-1.7532,-1.7543,-1.7446,-1.7547,-1.7549,-1.7664,-1.7681,-1.7719,-1.7814,-1.7824,-1.7813,-1.7818,-1.7821,-1.7823,0,0,0,0,0,0,0,-1.7025,-1.7048,-1.7255,-1.7258,-1.7273,-1.7313,-1.7338,-1.7406,-1.7543,-1.7454,-1.7466,-1.749,-1.7672,-1.7711,-1.7726,-1.7828,-1.7813,-1.782,-1.7825,-1.7828,-1.7949,-1.7948,0,0,0,0,0,0,-1.6996,-1.7037,-1.7248,-1.7262,-1.716,-1.7317,-1.7344,-1.7387,-1.7543,-1.7568,-1.7488,-1.7496,-1.7697,-1.7717,-1.7734,-1.7763,-1.7821,-1.7828,-1.7833,-1.7951,-1.7949,-1.7947,0,0,0,0,0,0,-1.699,-1.7014,-1.7239,-1.7153,-1.7184,-1.732,-1.7366,-1.7391,-1.743,-1.7568,-1.7594,-1.7503,-1.7699,-1.7724,-1.7786,-1.7773,-1.7832,-1.7839,-1.7952,-1.795,-1.7948,-1.7818,0,0,0,0,0,0,-1.6981,-1.701,-1.7015,-1.7152,-1.7188,-1.7284,-1.7366,-1.7394,-1.7443,-1.7455,-1.7589,-1.7613,-1.7703,-1.7773,-1.7793,-1.7784,-1.7845,-1.7954,-1.7951,-1.7949,-1.7824,-1.7812,-1.7802,0,0,0,0,0,-1.697,-1.6971,-1.7015,-1.7039,-1.7197,-1.7283,-1.7304,-1.7406,-1.7441,-1.7448,-1.7538,-1.7609,-1.7771,-1.7778,-1.7802,-1.7795,-1.7955,-1.7952,-1.7949,-1.7829,-1.7815,-1.7802,0,0,0,0,0,0,-1.6831,-1.699,-1.7041,-1.7085,-1.7169,-1.7308,-1.732,-1.7386,-1.7463,-1.7472,-1.7597,-1.7626,-1.7675,-1.7743,-1.7747,-1.7819,-1.7872,-1.7874,-1.7773,-1.776,-1.7749,-1.7731,-1.7851,0,0,0,0,0,-1.6804,-1.6859,-1.6997,-1.7022,-1.7062,-1.7183,-1.7224,-1.7296,-1.7388,-1.7425,-1.7519,-1.7608,-1.768,-1.7724,-1.7797,-1.7836,-1.7868,-1.7843,-1.7832,-1.7822,-1.7821,-1.7849,-1.784,-1.7937,-1.7937,-1.7937,0,0,-1.6752,-1.6846,-1.6873,-1.6997,-1.707,-1.7125,-1.7212,-1.7267,-1.731,-1.7434,-1.7498,-1.757,-1.7678,-1.7728,-1.7756,-1.7786,-1.7802,-1.7818,-1.7809,-1.7814,-1.7845,-1.7835,-1.7827,-1.7935,-1.7936,-1.7936,0,0,-1.6684,-1.676,-1.679,-1.6862,-1.6972,-1.7054,-1.7061,-1.7191,-1.7243,-1.7309,-1.7403,-1.7458,-1.7578,-1.7652,-1.7705,-1.7668,-1.7737,-1.7688,-1.7628,-1.7654,-1.7646,-1.764,-1.7627,-1.7621,-1.7688,-1.7687,-1.7687,0,-1.6605,-1.669,-1.6798,-1.6847,-1.69,-1.7014,-1.7047,-1.7113,-1.7241,-1.7276,-1.7308,-1.7463,-1.7543,-1.7613,-1.7604,-1.7643,-1.7657,-1.7673,-1.7638,-1.7633,-1.7629,-1.7619,-1.7613,-1.7681,-1.7682,-1.7682,-1.7683,0,-1.6588,-1.6646,-1.6658,-1.6778,-1.6832,-1.6873,-1.6989,-1.7032,-1.7099,-1.7178,-1.7246,-1.7347,-1.7443,-1.7466,-1.7532,-1.7546,-1.7562,-1.7614,-1.767,-1.7611,-1.7603,-1.76,-1.7671,-1.7674,-1.7676,-1.7677,0,0,-1.6436,-1.6616,-1.6619,-1.6675,-1.6806,-1.6855,-1.6902,-1.6995,-1.703,-1.7116,-1.716,-1.7261,-1.7311,-1.7371,-1.7447,-1.7469,-1.7435,-1.752,-1.7525,-1.7501,-1.7459,-1.7417,-1.7411,-1.7482,-1.7482,-1.7482,-1.745,0,-1.6389,-1.6477,-1.6576,-1.6632,-1.6688,-1.6799,-1.6841,-1.6927,-1.7002,-1.7063,-1.7149,-1.7217,-1.7278,-1.7315,-1.7342,-1.7433,-1.7428,-1.7437,-1.7526,-1.7528,-1.7494,-1.7407,-1.7364,-1.7328,-1.7447,-1.7447,-1.7447,0,-1.6344,-1.6422,-1.6482,-1.661,-1.6637,-1.6672,-1.6767,-1.6823,-1.6925,-1.6979,-1.7046,-1.7128,-1.7187,-1.7236,-1.7321,-1.7324,-1.7368,-1.7418,-1.742,-1.7431,-1.7483,-1.7416,-1.7319,-1.7313,-1.7443,-1.7443,-1.7443,0,-1.6227,-1.6349,-1.6401,-1.6446,-1.6596,-1.6618,-1.6682,-1.6785,-1.6835,-1.6919,-1.6954,-1.7044,-1.7093,-1.7162,-1.7268,-1.7294,-1.7341,-1.7399,-1.7389,-1.7386,-1.7393,-1.739,-1.73,-1.7421,-1.7421,-1.7421,-1.7421,0,-1.6163,-1.6195,-1.635,-1.6382,-1.6423,-1.6539,-1.6577,-1.6651,-1.6742,-1.6793,-1.6896,-1.6941,-1.7078,-1.714,-1.7224,-1.7281,-1.7303,-1.735,-1.7372,-1.734,-1.7334,-1.7369,-1.7374,-1.742,-1.742,-1.742,-1.742,0,-1.6038,-1.6143,-1.6208,-1.6344,-1.638,-1.6403,-1.6522,-1.6559,-1.6641,-1.6704,-1.6726,-1.6856,-1.6935,-1.7047,-1.7161,-1.7218,-1.7264,-1.7299,-1.7228,-1.7241,-1.7225,-1.7224,-1.7154,-1.7151,-1.7272,-1.727,-1.7269,0,-1.599,-1.6017,-1.6157,-1.6197,-1.6257,-1.632,-1.6372,-1.6489,-1.6539,-1.6658,-1.668,-1.6768,-1.6843,-1.6966,-1.7072,-1.7161,-1.7198,-1.7168,-1.7212,-1.7181,-1.7198,-1.7195,-1.7199,-1.7156,-1.7154,-1.7153,-1.7151,0,-1.5892,-1.5944,-1.6013,-1.6101,-1.6159,-1.6235,-1.6316,-1.6343,-1.6478,-1.653,-1.6611,-1.667,-1.6787,-1.6872,-1.6976,-1.7045,-1.7121,-1.7137,-1.7139,-1.7107,-1.7065,-1.7088,-1.7198,-1.7137,-1.7139,-1.714,-1.7141,-1.7141,-1.5805,-1.5835,-1.5938,-1.6013,-1.6085,-1.6159,-1.62,-1.6288,-1.6357,-1.6459,-1.6525,-1.6604,-1.6708,-1.6855,-1.6921,-1.6986,-1.7017,-1.702,-1.7021,-1.702,-1.7009,-1.7055,-1.7005,-1.7006,-1.7007,-1.7007,-1.7007,0,-1.5714,-1.5785,-1.5853,-1.5962,-1.6021,-1.6086,-1.618,-1.6226,-1.6292,-1.6382,-1.6455,-1.655,-1.6634,-1.6748,-1.6841,-1.6872,-1.6909,-1.6892,-1.6891,-1.6906,-1.6976,-1.6964,-1.6861,-1.6861,-1.6861,-1.6861,-1.6861,-1.6861,-1.5673,-1.5727,-1.579,-1.5883,-1.5956,-1.6032,-1.608,-1.6149,-1.6222,-1.6322,-1.6392,-1.6465,-1.6566,-1.6668,-1.6749,-1.6781,-1.6811,-1.6783,-1.6825,-1.6888,-1.6901,-1.6914,-1.6903,-1.6788,-1.6788,-1.675,-1.675,-1.6749]},{"header":{"parameterUnit":"m.s-1","parameterCategory":1,"la1":30.2991,"la2":30.254,"lo1":-89.0895,"lo2":-89.0444,"dy":0.0017,"dx":0.0017,"nx":28,"ny":28,"refTime":"2025-03-31T03:00:00:Z","depth":0,"parameterNumber":3,"parameterNumberName":"V-component_of_WINDS"},"data":[0,0,0,0,0,0,0,0,0,0,0,0,0,0,0,0,0,0,0,0,0,0,0,0,0,0,0,0,0,0,0,0,0,0,0,0,0,0,0,0,0,0,0,0,0,0,0,0,0,0,0,0,0,0,0,0,0,0,4.5271,4.5269,0,4.5097,4.5095,4.5093,4.4981,4.498,4.498,4.4979,4.4792,4.4788,4.4784,0,0,0,0,0,0,0,0,0,0,0,0,0,4.55,4.5497,4.5271,4.5269,4.5267,4.5097,4.5094,4.5092,4.4981,4.498,4.498,4.4979,4.4794,4.4788,4.4783,0,0,0,0,0,0,0,0,0,0,0,0,0,4.5371,4.5495,4.5271,4.5191,4.5182,4.5097,4.5094,4.5091,4.4981,4.498,4.4979,4.4979,4.4795,4.4789,4.4782,4.4761,0,0,4.4762,4.4759,0,0,0,0,0,0,0,0,4.5378,4.5362,4.5205,4.5197,4.5186,4.506,4.5106,4.498,4.4982,4.5057,4.4979,4.4978,4.4881,4.4868,4.4837,4.4752,4.4744,4.4762,4.4758,4.4755,4.4753,0,0,0,0,0,0,0,4.5387,4.5369,4.5202,4.5203,4.5191,4.5161,4.5142,4.5082,4.4977,4.5051,4.5042,4.5024,4.4876,4.4843,4.4832,4.4741,4.4762,4.4756,4.4752,4.4749,4.463,4.4631,0,0,0,0,0,0,4.541,4.5377,4.5207,4.5196,4.5282,4.5158,4.5136,4.5101,4.4977,4.4957,4.5025,4.5019,4.4855,4.4839,4.4825,4.4791,4.4755,4.4749,4.4745,4.4629,4.463,4.4631,0,0,0,0,0,0,4.5415,4.5396,4.5214,4.5285,4.5259,4.5155,4.5117,4.5098,4.5066,4.4957,4.4937,4.5011,4.4854,4.4834,4.4778,4.4783,4.4746,4.474,4.4628,4.4629,4.463,4.4724,0,0,0,0,0,0,4.5423,4.5399,4.5391,4.5285,4.5256,4.5173,4.5117,4.5096,4.5056,4.5047,4.4939,4.4921,4.4851,4.4789,4.4772,4.4773,4.4735,4.4627,4.4629,4.463,4.472,4.4728,4.4735,0,0,0,0,0,4.5431,4.5422,4.5391,4.5371,4.5245,4.5174,4.5157,4.508,4.5057,4.5047,4.4977,4.4924,4.4786,4.4784,4.4764,4.4763,4.4627,4.4628,4.463,4.4716,4.4726,4.4735,0,0,0,0,0,0,4.5528,4.5407,4.5371,4.5329,4.5263,4.5155,4.5141,4.5093,4.503,4.5024,4.4928,4.4905,4.4859,4.4805,4.4805,4.4736,4.47,4.4698,4.4772,4.4781,4.4788,4.4801,4.4729,0,0,0,0,0,4.5545,4.55,4.5396,4.5368,4.5338,4.5246,4.5211,4.5158,4.5085,4.5055,4.4982,4.491,4.485,4.4813,4.4752,4.4712,4.4686,4.4702,4.471,4.4716,4.4715,4.4689,4.4695,4.4637,4.4637,4.4637,0,0,4.5578,4.5507,4.5484,4.5386,4.5329,4.5282,4.5222,4.5175,4.5139,4.5047,4.4991,4.4935,4.4848,4.4801,4.4776,4.4755,4.4726,4.4719,4.4725,4.4719,4.4692,4.4697,4.4702,4.4638,4.4638,4.4637,0,0,4.5615,4.5558,4.5529,4.5473,4.5389,4.5327,4.5321,4.5221,4.5181,4.5124,4.5054,4.5008,4.4907,4.4849,4.4806,4.4823,4.4771,4.4806,4.4845,4.4821,4.4825,4.4829,4.4834,4.4837,4.4805,4.4805,4.4805,0,4.5667,4.5596,4.5519,4.5476,4.5435,4.5354,4.5322,4.5271,4.5169,4.5141,4.512,4.4993,4.4929,4.4866,4.4871,4.4839,4.4827,4.4817,4.4832,4.4834,4.4836,4.484,4.4842,4.481,4.4809,4.4809,4.4809,0,4.5663,4.5615,4.5601,4.5509,4.5466,4.5429,4.5344,4.5309,4.526,4.5201,4.5143,4.5064,4.4986,4.4967,4.4918,4.4897,4.4887,4.485,4.4812,4.4848,4.485,4.4851,4.4817,4.4815,4.4814,4.4812,0,0,4.5754,4.5622,4.5618,4.5575,4.5476,4.5436,4.5395,4.5322,4.5293,4.5226,4.5188,4.5106,4.5072,4.5023,4.4966,4.4946,4.4963,4.4911,4.4907,4.4922,4.4935,4.4963,4.4966,4.493,4.4929,4.4929,4.4942,0,4.5775,4.5701,4.5631,4.558,4.5534,4.5457,4.5421,4.5355,4.5299,4.525,4.5186,4.513,4.5089,4.5059,4.5036,4.4967,4.4964,4.4965,4.489,4.4889,4.4913,4.4967,4.4995,4.5011,4.4942,4.4942,4.4942,0,4.579,4.573,4.5676,4.5583,4.5561,4.553,4.5457,4.5412,4.5336,4.5296,4.5244,4.5184,4.5135,4.5104,4.5034,4.5036,4.5001,4.4963,4.4961,4.495,4.4917,4.4955,4.5014,4.5016,4.4943,4.4943,4.4943,0,4.5861,4.5766,4.5722,4.5688,4.5578,4.5558,4.5511,4.5434,4.5394,4.533,4.5303,4.5233,4.5194,4.514,4.5063,4.5047,4.5,4.4962,4.4964,4.4966,4.4956,4.4957,4.5008,4.4937,4.4936,4.4936,4.4936,0,4.5891,4.5861,4.5753,4.5725,4.5688,4.5607,4.5572,4.5517,4.545,4.5408,4.5337,4.5299,4.52,4.515,4.5089,4.504,4.5023,4.4988,4.4971,4.4993,4.4998,4.4968,4.4964,4.4937,4.4937,4.4937,4.4937,0,4.5963,4.589,4.5836,4.5738,4.5712,4.569,4.5604,4.5573,4.5514,4.5463,4.5446,4.5352,4.5289,4.5208,4.5118,4.5077,4.5034,4.501,4.5061,4.5051,4.5057,4.5057,4.509,4.5089,4.502,4.5021,4.5022,0,4.5987,4.5962,4.5863,4.5832,4.5788,4.5738,4.5698,4.5617,4.5578,4.549,4.5469,4.5402,4.5343,4.5246,4.5168,4.51,4.5072,4.5089,4.5061,4.5084,4.5071,4.5073,4.5069,4.5095,4.5096,4.5097,4.5098,0,4.6036,4.6002,4.5949,4.5884,4.584,4.5783,4.5723,4.5701,4.5607,4.5566,4.5503,4.5458,4.5369,4.5302,4.5224,4.5172,4.5118,4.5108,4.5104,4.5125,4.5155,4.5138,4.5078,4.5106,4.5106,4.5105,4.5104,4.5104,4.6084,4.6058,4.5985,4.5928,4.5876,4.5822,4.5788,4.5727,4.5673,4.5596,4.5551,4.5489,4.5412,4.5302,4.5253,4.5201,4.5181,4.5176,4.5174,4.5174,4.5181,4.5166,4.5187,4.5186,4.5186,4.5186,4.5186,0,4.6128,4.6078,4.6027,4.5948,4.5903,4.5861,4.5792,4.5757,4.5705,4.5639,4.5584,4.5511,4.5446,4.5365,4.5294,4.5268,4.5242,4.5252,4.5252,4.5241,4.5204,4.5213,4.5275,4.5275,4.5275,4.5275,4.5275,4.5275,4.6147,4.6102,4.6059,4.5986,4.5934,4.5876,4.5841,4.579,4.5737,4.566,4.5607,4.5556,4.5483,4.5406,4.5344,4.5322,4.5298,4.5316,4.5286,4.5252,4.5244,4.5236,4.5245,4.5312,4.5312,4.5327,4.5327,4.5327]}]]